SCP
0 0 0 0 0 0 0 0 0 0 0 0 0 0 0 0 0 0 0 0 0 0 0 0 0 0 0 0 0 0 0 0 0 0 0 0 0 0
0 0 0 0 0 0 0 0 0 0 0 0 0 0 0 0 0 0 0 0 0 0 0 0 0 0 0 0 0 0 0 0 0 0 0 0 0 0
0 0 0 0 0 0 0 0 0 0 0 0 0 0 0 0 0 0 0 0 0 0 0 0 0 0 0 0 0 0 0 0 0 0 0 0 0 0
0 0 0 0 0 0 0 0 0 0 0 0 0 0 0 0 0 0 0 0 0 0 0 0 0 0 0 0 0 0 0 0 0 0 0 0 0 0
0 0 0 0 0 0 0 0 0 0 0 0 0 0 0 0 0 0 0 0 0 0 0 0 0 0 0 0 0 0 0 0 0 0 0 0 0 0
0 0 0 0 0 0 0 0 0 0 0 0 0 0 0 0 0 0 0 0 0 0 0 0 0 0 0 0 0 0 0 0 0 0 0 0 0 0
0 0 0 0 0 0 0 0 0 0 0 0 0 0 0 0 0 0 0 0 0 0 0 0 0 0 0 0 0 0 0 0 0 0 0 0 0 0
0 0 0 0 0 0 0 0 0 0 0 0 0 0 0 0 0 0 0 0 0 0 0 0 0 0 0 0 0 0 0 0 0 0 0 0 0 0
0 0 0 0 0 0 0 0 0 0 0 0 0 0 0 0 0 0 0 0 0 0 0 0 0 0 0 0 0 0 0 0 0 0 0 0 0 0
0 0 0 0 0 0 0 0 0 0 0 0 0 0 0 0 0 0 0 0 0 0 0 0 0 0 0 0 0 0 0 0 0 0 0 0 0 0
0 0 0 0 0 0 0 0 0 0 0 0 0 0 0 0 0 -0 -0 -0 0 0 0 0 0 0 0 0 0 0 0 0 0 0 0 0 0 0
0 0 0 0 0 0 0 0 0 0 0 0 0 0 0 0 0 0 -0 -0 0 0 0 0 0 0 0 0 0 0 0 0 0 0 0 0 0 0
0 0 0 0 0 0 0 0 0 0 0 0 0 0 0 0 0 0 0 0 0 0 0 0 0 0 0 0 0 0 0 0 0 0 0 0 0 0
-0 -0 0 0 0 0 0 0 0 0 0 0 0 0 0 0 0 0 0 0 0 0 0 0 0 0 0 0 0 0 0 0 0 0 0 0 0 0
0 0 0 0 0 0 0 0 0 0 0 0 0 0 0 0 0 0 0 0 0 0 0 0 0 0 0 0 0 0 0 0 0 0 0 0 0 0
0 0 0 0 0 0 0 0 0 0 0 0 0 0 0 0 0 0 0 0 0 0 0 0 0 0 0 0 0 0 0 0 0 0 0 0 0 0
0 0 0 0 0 0 0 0 0 0 0 0 0 0 0 0 0 0 0 0 0 0 0 0 0 0 0 0 0 0 0 0 0 0 0 0 0 0
0 0 0 0 0 0 0 0 0 0 0 0 0 0 0 0 0 0 0 0 0 0 0 0 0 0 0 0 0 0 0 0 0 0 0 0 0 0
0 0 0 0 0 0 0 0 0 0 0 0 0 0 0 0 0 0 0 0 0 0 0 0 0 0 0 0 0 0 0 0 0 0 0 0 0 0
0 0 0 0 0 0 0 0 0 0 0 0 0 0 0 0 0 0 0 0 0 0 0 0 0 0 0 0 0 0 0 0 0 0 0 0 0 0
0 0 0 0 0 0 0 0 0 0 0 0 0 0 0 0 0 0 0 0 0 0 0 0 0 0 0 0 0 0 0 0 0 0 0 0 0 0
0 0 0 0 0 0 0 0 0 0 0 0 0 0 0 0 0 0 0 0 0 0 0 0 0 0 0 0 0 0 0 0 0 0 0 0 0 0
0 0 0 0 0 0 0 0 0 0 0 0 0 0 0 0 0 0 0 0 0 0 0 0 0 0 0 0 0 0 0 0 0 0 0 0 0 0
Wind_Speed
8 9 7 6 6 6 5 6 6 5 3 2 1 2 2 4 4 4 5 6 7 6 5 5 4 4 4 4 4 4 4 3 4 4 4 4 5 7
5 7 6 5 5 5 5 5 4 5 4 2 2 2 3 5 6 5 5 8 7 7 6 6 5 5 4 4 3 3 3 2 3 4 4 5 6 8
3 3 4 4 4 4 4 4 4 5 6 4 3 3 4 5 4 4 5 5 5 8 7 6 6 5 5 4 3 2 2 3 3 4 5 6 7 8
1 0 1 2 3 3 4 5 5 5 8 9 4 3 4 3 4 5 5 5 5 8 8 8 7 6 5 4 4 3 3 3 4 5 6 7 8 9
2 3 2 3 4 4 5 6 6 7 7 9 5 3 3 3 4 5 5 4 5 6 7 7 7 7 6 5 4 4 4 4 4 5 6 7 8 10
4 4 4 4 6 6 7 8 9 10 9 9 7 4 3 3 4 4 4 4 4 5 5 5 6 6 6 6 6 5 5 5 6 6 7 7 8 9
5 5 6 8 8 7 7 9 10 9 8 8 6 5 3 4 4 2 3 3 4 4 3 3 3 4 4 5 5 6 5 6 6 7 7 8 9 10
5 5 6 8 12 15 15 12 11 10 9 6 5 6 4 3 3 3 2 2 3 4 3 3 3 3 3 3 5 6 6 7 7 8 8 9 9 10
5 4 5 7 8 11 14 15 13 12 9 7 8 5 4 3 3 3 3 3 2 2 2 3 3 3 3 3 6 7 7 8 9 9 9 9 10 10
5 5 6 6 6 9 11 11 9 8 6 5 6 5 4 3 3 3 3 3 2 2 3 2 3 3 3 3 5 7 8 8 9 9 10 10 11 12
5 5 6 7 8 11 11 11 9 7 9 10 9 8 7 6 4 4 3 3 3 3 3 2 2 3 3 3 4 7 9 9 10 10 11 11 12 12
4 5 7 8 9 10 9 10 9 6 7 8 8 8 8 8 7 4 3 3 2 2 3 2 2 3 3 2 3 5 7 8 10 10 11 12 12 8
4 4 4 9 10 9 8 7 9 7 7 8 6 6 5 5 5 4 3 3 3 2 2 2 2 2 2 3 4 4 6 6 7 8 10 11 11 8
5 4 5 9 10 10 8 10 11 8 6 6 6 5 4 4 4 4 5 4 3 2 2 1 1 1 2 2 3 5 5 6 7 8 8 9 9 10
5 8 9 11 10 8 10 11 8 6 6 6 5 3 2 2 2 2 4 4 4 4 4 3 1 1 1 2 3 4 5 6 7 8 8 7 7 8
7 9 11 10 7 8 7 6 4 4 5 5 4 3 2 3 3 3 3 3 3 4 4 5 4 2 1 2 2 4 5 6 7 8 7 6 6 7
9 6 5 4 5 4 4 4 4 4 4 3 4 4 3 3 3 2 2 2 3 3 4 4 4 2 1 2 3 5 5 5 6 7 7 6 6 7
10 7 6 6 6 6 6 5 4 4 4 4 4 4 4 4 3 2 2 2 3 2 3 3 4 3 2 2 1 5 5 5 6 7 6 6 7 7
8 7 7 7 6 6 6 5 5 4 4 5 4 4 4 3 3 3 2 2 2 2 2 2 3 3 4 5 4 3 5 5 6 6 6 5 6 7
6 8 8 7 7 7 6 5 5 5 4 5 4 4 4 3 3 3 2 2 2 1 2 2 2 2 2 3 3 4 5 5 5 6 7 5 5 6
8 8 8 8 7 7 7 6 6 6 6 5 5 5 4 4 3 3 3 3 2 1 1 2 3 3 2 1 2 3 4 4 4 4 6 6 7 7
9 9 8 8 8 7 7 7 7 6 7 6 5 5 5 4 5 5 4 3 2 2 1 1 2 2 1 2 3 4 5 5 4 3 4 5 5 6
10 9 8 8 8 7 7 8 9 7 7 7 6 6 6 5 4 5 5 4 3 3 1 0 1 1 2 2 2 3 5 6 5 5 5 8 7 5
Wind_Direction
248 239 235 227 213 209 201 189 178 176 174 164 116 56 87 93 99 99 96 95 96 98 95 95 96 95 94 89 78 65 53 41 25 9 347 321 304 287
249 239 233 221 207 203 199 193 178 159 146 136 114 89 81 94 81 84 87 87 84 89 88 90 89 90 90 86 76 60 43 23 3 347 334 320 306 294
265 234 225 204 191 195 187 179 168 142 128 115 85 75 76 85 79 77 81 81 78 76 78 82 84 83 82 81 72 48 26 7 350 338 327 316 305 295
308 166 174 152 150 162 162 155 146 136 133 128 106 76 71 79 84 79 71 77 77 71 73 72 73 74 73 67 57 37 15 353 337 327 318 312 306 301
31 62 71 102 106 107 117 121 122 118 115 120 112 81 70 61 72 69 65 54 63 65 65 63 61 62 58 55 48 36 19 357 335 320 313 309 305 301
38 49 56 84 104 107 107 110 112 111 109 111 106 94 79 62 78 76 67 48 44 38 39 46 47 49 46 45 41 35 22 5 346 331 319 309 302 297
46 49 59 73 88 101 111 114 115 112 110 110 108 102 88 79 76 70 82 69 54 29 22 28 25 30 32 31 32 25 15 1 349 338 327 314 304 297
64 55 66 70 81 85 91 96 109 118 119 115 114 111 103 92 88 84 90 79 61 15 14 14 16 17 18 25 16 12 5 354 343 334 325 318 309 302
81 74 80 76 82 92 87 83 81 88 103 119 120 122 121 130 120 99 89 86 78 1 1 14 360 359 358 7 7 6 360 351 343 335 325 317 311 306
73 87 98 90 93 102 98 89 82 76 86 99 114 116 117 127 116 107 104 97 78 41 16 21 350 339 338 348 359 358 352 345 339 336 330 323 318 311
72 79 97 99 107 110 106 101 92 82 81 87 88 91 97 101 109 104 92 88 70 37 19 16 344 326 321 328 348 355 351 345 339 334 330 325 321 316
82 76 86 105 111 113 116 118 112 106 104 93 76 68 73 72 68 78 103 100 93 56 15 6 359 350 342 330 332 347 352 345 338 334 329 327 327 324
121 106 97 108 109 109 112 117 127 123 109 103 93 83 74 67 62 61 66 93 97 74 10 0 8 7 349 319 321 333 346 347 347 343 339 336 333 333
142 133 124 121 116 115 111 120 121 115 110 104 97 87 80 70 59 60 64 69 74 74 12 16 41 10 355 347 334 331 334 347 349 346 345 342 342 338
143 143 136 128 116 110 117 124 122 118 116 111 107 95 78 66 67 68 57 61 69 62 49 39 45 40 25 359 339 336 332 337 347 346 345 348 352 349
130 130 123 115 104 106 110 110 111 121 124 122 116 102 94 88 71 61 59 45 52 35 32 39 32 36 41 14 355 351 345 338 342 345 342 347 355 356
136 124 124 125 123 120 113 114 118 121 115 119 122 118 109 98 80 67 70 67 62 30 6 3 10 34 46 14 6 359 350 347 347 343 341 347 357 0
140 147 152 154 156 153 147 140 138 138 135 133 132 130 125 118 107 92 84 80 73 45 19 359 354 17 40 71 25 351 350 346 343 347 349 345 353 358
149 160 165 168 167 164 163 160 158 154 149 148 145 144 140 134 127 118 109 98 81 56 31 12 12 21 18 10 10 23 350 340 343 354 357 349 343 344
169 169 173 173 172 172 172 169 161 155 158 161 158 158 157 150 148 148 143 131 110 73 41 31 22 9 360 346 333 339 357 349 347 350 349 339 333 324
178 176 176 175 177 177 176 174 171 171 171 170 172 172 171 165 165 168 162 149 141 122 50 12 341 318 272 276 332 357 3 5 355 347 345 345 349 355
180 180 179 179 179 177 177 176 175 176 178 182 183 182 183 183 180 180 179 174 175 176 187 355 360 15 44 25 9 354 353 359 3 9 27 18 357 357
181 181 180 181 181 177 177 181 183 185 187 189 189 189 188 190 191 188 187 188 183 182 190 197 34 44 40 18 5 359 359 360 356 3 19 12 8 358